Location: Cahas Mountain Overlook
(37.0833°N, 80.1000°W)
Time: 18:41:39
(UTC-05:00)

Vanguard 3 - Pass Details

Date: 12 December 2023
Orbit: 508 x 3239 km, 33.4° (Epoch: 23 February)

Event Time Altitude Azimuth Distance (km) Brightness Sun altitude
Rises 22:10:01 0° 266° (W) 6,819 12.3 -59.9°
Reaches altitude 10° 22:15:04 10° 266° (W) 5,501 11.6 -60.9°
Enters shadow 22:22:06 30° 262° (W) 3,586 10.4 -62.2°
